Tracking 23731 objects as of 26-Sep-2021
HD Live streaming from Space Station
objects crossing your sky now

STARLINK-1620

Track STARLINK-1620 now!
10-day predictions
STARLINK-1620 is classified as:


NORAD ID: 46149
Int'l Code: 2020-057AJ
Perigee: 553.4 km
Apogee: 555.3 km
Inclination: 53.1 °
Period: 95.6 minutes
Semi major axis: 6925 km
RCS: Unknown
Launch date: August 18, 2020
Source: United States (US)
Launch site: AIR FORCE EASTERN TEST RANGE (AFETR)
aabbcc
Your satellite tracking list
Your tracking list is empty




NASA's NSSDC Master Catalog

Two Line Element Set (TLE):
1 46149U 20057AJ  21268.62794572 -.00000298  00000-0 -11350-5 0  9995
2 46149  53.0556  36.2993 0001386 102.2546 257.8598 15.06392896 62539
Source of the keplerian elements: AFSPC